Flag Weather past 2 weeks in Solothurn, Solothurn, Switzerland

Now
40 °F

Chilly.


Feels Like: 36 °F
Forecast: 35 / 53 °F
Wind: 6 mph from East

Location: Grenchen

Current Time: Nov 29, 2014 at 2:20:59 AM

Latest Report: Nov 29, 2014 at 1:00 AM


Visibility: N/A

Pressure: 29.90 "Hg

Humidity: 95%

Dew point: 38 °F

Location of SolothurnLocation

Historic Weather in Solothurn — Graph

°F

Solothurn temperature yesterday

Maximum temperature yesterday: 46 °F (at 12:00 AM)
Minimum temperature yesterday: 41 °F (at 11:00 PM)
Average temperature yesterday: 43 °F

Past Weeks' High & Low Weather Summary

 TemperatureHumidityPressure
High52 °F (Nov 24, 4:00 PM)100% (Nov 14, 12:00 AM)30.33 "Hg (Nov 14, 12:00 AM)
Low34 °F (Nov 20, 12:00 AM)72% (Nov 19, 4:00 PM)29.61 "Hg (Nov 15, 5:00 PM)
Average44 °F96%30.00 "Hg
* Reported Midnight between Nov 13 and Nov 14 — Midnight between Nov 28 and Nov 29, Solothurn, Weather by CustomWeather, © 2014

Note: Actual official high and low records may vary slightly from our data, if they occured in-between our weather recording intervals... More about our weather records

Advertising

Solothurn weather history for previous 24 hours

 ConditionsComfort  
Time TempWeatherWind HumidityBarometerVisibility
12:00 AM
Nov 29
41 °FQuite cool.5 mph94%29.89 "HgN/A
11:00 PM
Nov 28
41 °FQuite cool.6 mph92%29.88 "HgN/A
10:00 PM42 °FQuite cool.7 mph91%29.87 "HgN/A
9:00 PM42 °FQuite cool.6 mph91%29.85 "HgN/A
8:00 PM42 °FQuite cool.5 mph94%29.82 "HgN/A
7:00 PM42 °FQuite cool.5 mph93%29.80 "HgN/A
6:00 PM42 °FQuite cool.7 mph93%29.78 "HgN/A
5:00 PM43 °FQuite cool.8 mph92%29.77 "HgN/A
4:00 PM43 °FQuite cool.8 mph92%29.75 "HgN/A
3:00 PM43 °FQuite cool.9 mph91%29.75 "HgN/A
2:00 PM43 °FQuite cool.7 mph93%29.75 "HgN/A
1:00 PM43 °FQuite cool.9 mph93%29.75 "HgN/A
12:00 PM43 °FQuite cool.9 mph95%29.78 "HgN/A
11:00 AM42 °FQuite cool.9 mph96%29.79 "HgN/A
10:00 AM42 °FQuite cool.10 mph96%29.80 "HgN/A
9:00 AM42 °FQuite cool.10 mph97%29.79 "HgN/A
8:00 AM43 °FQuite cool.7 mph97%29.80 "HgN/A
7:00 AM43 °FQuite cool.9 mph96%29.77 "HgN/A
6:00 AM43 °FQuite cool.7 mph95%29.78 "HgN/A
5:00 AM44 °FQuite cool.7 mph96%29.79 "HgN/A
4:00 AM44 °FQuite cool.9 mph96%29.79 "HgN/A
3:00 AM45 °FQuite cool.8 mph96%29.79 "HgN/A
2:00 AM45 °FQuite cool.9 mph97%29.80 "HgN/A
Weather by CustomWeather, © 2014

See weather overviewHow to use our weather pages